Time,TemperatureF,DewpointF,PressureIn,WindDirection,WindDirectionDegrees,WindSpeedMPH,WindSpeedGustMPH,Humidity,HourlyPrecipIn,Conditions,Clouds,dailyrainin,SoftwareType,DateUTC
2015-07-06 00:06:00,65.3,65.3,28.12,NE,39,5.0,15.0,100,0.03,,---,0.00,VWS V14.01,2015-07-06 05:06:00,
2015-07-06 00:12:00,65.2,65.2,28.13,North,8,5.0,15.0,100,0.03,,---,0.00,VWS V14.01,2015-07-06 05:12:00,
2015-07-06 00:18:00,65.7,65.7,28.14,North,359,5.0,15.0,100,0.03,,---,0.00,VWS V14.01,2015-07-06 05:18:00,
2015-07-06 00:24:00,65.6,65.6,28.14,North,0,5.0,15.0,100,0.03,,---,0.00,VWS V14.01,2015-07-06 05:24:00,
2015-07-06 00:29:00,65.4,65.4,28.14,North,0,4.0,15.0,100,0.03,,---,0.00,VWS V14.01,2015-07-06 05:29:00,
2015-07-06 00:36:00,65.3,65.3,28.14,North,11,5.0,8.0,100,0.01,,---,0.00,VWS V14.01,2015-07-06 05:36:00,
2015-07-06 00:42:00,65.3,65.3,28.14,North,359,3.0,9.0,100,0.01,,---,0.00,VWS V14.01,2015-07-06 05:42:00,
2015-07-06 00:48:00,65.6,65.6,28.14,North,0,0.0,9.0,100,0.01,,---,0.00,VWS V14.01,2015-07-06 05:48:00,
2015-07-06 00:54:00,65.4,65.4,28.14,NW,322,0.0,9.0,100,0.01,,---,0.00,VWS V14.01,2015-07-06 05:54:00,
2015-07-06 00:59:00,65.2,65.2,28.14,North,358,2.0,9.0,100,0.01,,---,0.00,VWS V14.01,2015-07-06 05:59:00,
2015-07-06 01:06:00,65.0,65.0,28.14,NE,45,2.0,7.0,100,0.00,,---,0.00,VWS V14.01,2015-07-06 06:06:00,
2015-07-06 01:12:00,64.7,64.7,28.14,North,358,5.0,10.0,100,0.00,,---,0.00,VWS V14.01,2015-07-06 06:12:00,
2015-07-06 01:18:00,64.6,64.6,28.14,North,355,7.0,11.0,100,0.00,,---,0.00,VWS V14.01,2015-07-06 06:18:00,
2015-07-06 01:24:00,64.9,64.9,28.15,North,359,1.0,11.0,100,0.00,,---,0.00,VWS V14.01,2015-07-06 06:24:00,
2015-07-06 01:29:00,64.8,64.8,28.15,North,0,0.0,11.0,100,0.00,,---,0.00,VWS V14.01,2015-07-06 06:29:00,
2015-07-06 01:36:00,64.5,64.5,28.16,NNW,337,4.0,7.0,100,0.00,,---,0.00,VWS V14.01,2015-07-06 06:36:00,
2015-07-06 01:42:00,64.3,64.3,28.15,NNW,331,4.0,9.0,100,0.00,,---,0.00,VWS V14.01,2015-07-06 06:42:00,
2015-07-06 01:48:00,64.2,64.2,28.16,NNW,338,0.0,9.0,100,0.00,,---,0.00,VWS V14.01,2015-07-06 06:48:00,
2015-07-06 01:54:00,64.1,64.1,28.16,NNW,329,1.0,9.0,100,0.00,,---,0.00,VWS V14.01,2015-07-06 06:54:00,
2015-07-06 01:59:00,64.0,64.0,28.16,North,351,0.0,9.0,100,0.00,,---,0.00,VWS V14.01,2015-07-06 06:59:00,
2015-07-06 02:06:00,63.9,63.9,28.16,WNW,299,0.0,6.0,100,0.00,,---,0.00,VWS V14.01,2015-07-06 07:06:00,
2015-07-06 02:12:00,63.9,63.9,28.16,North,0,0.0,6.0,100,0.00,,---,0.00,VWS V14.01,2015-07-06 07:12:00,
2015-07-06 02:18:00,63.9,63.9,28.16,North,349,0.0,6.0,100,0.00,,---,0.00,VWS V14.01,2015-07-06 07:18:00,
2015-07-06 02:24:00,63.7,63.7,28.17,WNW,297,0.0,6.0,100,0.00,,---,0.00,VWS V14.01,2015-07-06 07:24:00,
2015-07-06 02:30:00,63.6,63.6,28.17,NW,314,0.0,4.0,100,0.00,,---,0.00,VWS V14.01,2015-07-06 07:30:00,
2015-07-06 02:37:00,63.5,63.5,28.17,NW,321,2.0,6.0,100,0.00,,---,0.00,VWS V14.01,2015-07-06 07:37:00,
2015-07-06 02:43:00,63.4,63.4,28.17,NNW,329,5.0,6.0,100,0.01,,---,0.01,VWS V14.01,2015-07-06 07:43:00,
2015-07-06 02:49:00,63.3,63.3,28.18,NNW,331,0.0,6.0,100,0.01,,---,0.01,VWS V14.01,2015-07-06 07:49:00,
2015-07-06 02:55:00,63.4,63.4,28.18,NW,325,3.0,7.0,100,0.01,,---,0.01,VWS V14.01,2015-07-06 07:55:00,
2015-07-06 03:01:00,63.4,63.4,28.18,WNW,297,2.0,5.0,100,0.01,,---,0.01,VWS V14.01,2015-07-06 08:01:00,
2015-07-06 03:07:00,63.5,63.5,28.18,WNW,293,5.0,7.0,100,0.01,,---,0.01,VWS V14.01,2015-07-06 08:07:00,
2015-07-06 03:13:00,63.5,63.5,28.18,WNW,291,2.0,7.0,100,0.01,,---,0.01,VWS V14.01,2015-07-06 08:13:00,
2015-07-06 03:25:00,63.6,63.6,28.19,NNW,341,2.0,9.0,100,0.02,,---,0.02,VWS V14.01,2015-07-06 08:25:00,
2015-07-06 03:31:00,63.6,63.6,28.19,WNW,294,3.0,6.0,100,0.02,,---,0.02,VWS V14.01,2015-07-06 08:31:00,
2015-07-06 03:37:00,63.6,63.6,28.19,North,351,3.0,7.0,100,0.02,,---,0.02,VWS V14.01,2015-07-06 08:37:00,
2015-07-06 03:43:00,63.5,63.5,28.19,NNW,338,2.0,7.0,100,0.02,,---,0.02,VWS V14.01,2015-07-06 08:43:00,
2015-07-06 03:49:00,63.5,63.5,28.19,WNW,301,1.0,7.0,100,0.02,,---,0.02,VWS V14.01,2015-07-06 08:49:00,
2015-07-06 03:55:00,63.6,63.6,28.18,WNW,302,1.0,7.0,100,0.02,,---,0.02,VWS V14.01,2015-07-06 08:55:00,
2015-07-06 04:01:00,63.6,63.6,28.18,North,354,3.0,6.0,100,0.01,,---,0.02,VWS V14.01,2015-07-06 09:01:00,
2015-07-06 04:07:00,63.5,63.5,28.18,NNW,337,2.0,6.0,100,0.01,,---,0.02,VWS V14.01,2015-07-06 09:07:00,
2015-07-06 04:13:00,63.4,63.4,28.18,NNW,344,0.0,6.0,100,0.01,,---,0.02,VWS V14.01,2015-07-06 09:13:00,
2015-07-06 04:19:00,63.5,63.5,28.18,NNW,338,2.0,6.0,100,0.01,,---,0.02,VWS V14.01,2015-07-06 09:19:00,
2015-07-06 04:25:00,63.4,63.4,28.18,NNW,347,4.0,6.0,100,0.01,,---,0.02,VWS V14.01,2015-07-06 09:25:00,
2015-07-06 04:31:00,63.4,63.4,28.18,North,354,2.0,3.0,100,0.00,,---,0.02,VWS V14.01,2015-07-06 09:31:00,
2015-07-06 04:37:00,63.4,63.4,28.18,NNW,332,0.0,5.0,100,0.00,,---,0.02,VWS V14.01,2015-07-06 09:37:00,
2015-07-06 04:43:00,63.4,63.4,28.18,NW,305,1.0,5.0,100,0.00,,---,0.02,VWS V14.01,2015-07-06 09:43:00,
2015-07-06 04:49:00,63.4,63.4,28.19,North,356,0.0,5.0,100,0.00,,---,0.02,VWS V14.01,2015-07-06 09:49:00,
2015-07-06 04:55:00,63.5,63.5,28.19,NNW,331,1.0,5.0,100,0.00,,---,0.02,VWS V14.01,2015-07-06 09:55:00,
2015-07-06 05:01:00,63.6,63.6,28.19,North,353,7.0,8.0,100,0.00,,---,0.02,VWS V14.01,2015-07-06 10:01:00,
2015-07-06 05:07:00,63.7,63.7,28.19,North,352,2.0,8.0,100,0.00,,---,0.02,VWS V14.01,2015-07-06 10:07:00,
2015-07-06 05:13:00,63.7,63.7,28.19,North,356,0.0,10.0,100,0.00,,---,0.02,VWS V14.01,2015-07-06 10:13:00,
2015-07-06 05:19:00,63.8,63.8,28.19,North,351,0.0,10.0,100,0.00,,---,0.02,VWS V14.01,2015-07-06 10:19:00,
2015-07-06 05:25:00,63.8,63.8,28.19,North,355,1.0,12.0,100,0.00,,---,0.02,VWS V14.01,2015-07-06 10:25:00,
2015-07-06 05:31:00,64.1,64.1,28.20,NW,317,0.0,7.0,100,0.00,,---,0.02,VWS V14.01,2015-07-06 10:31:00,
2015-07-06 05:37:00,64.0,64.0,28.20,NNW,334,3.0,12.0,100,0.00,,---,0.02,VWS V14.01,2015-07-06 10:37:00,
2015-07-06 05:43:00,63.9,63.9,28.20,NNW,345,2.0,12.0,100,0.00,,---,0.02,VWS V14.01,2015-07-06 10:43:00,
2015-07-06 05:50:00,63.7,63.7,28.20,North,357,7.0,7.0,100,0.00,,---,0.02,VWS V14.01,2015-07-06 10:50:00,
2015-07-06 05:56:00,63.6,63.6,28.21,North,353,3.0,11.0,100,0.00,,---,0.02,VWS V14.01,2015-07-06 10:56:00,
2015-07-06 06:02:00,63.5,63.5,28.21,North,0,1.0,11.0,100,0.00,,---,0.02,VWS V14.01,2015-07-06 11:02:00,
2015-07-06 06:08:00,63.5,63.5,28.21,North,355,3.0,11.0,100,0.00,,---,0.02,VWS V14.01,2015-07-06 11:08:00,
2015-07-06 06:14:00,63.7,63.7,28.21,North,357,4.0,11.0,100,0.00,,---,0.02,VWS V14.01,2015-07-06 11:14:00,
2015-07-06 06:20:00,63.5,63.5,28.21,North,359,5.0,11.0,100,0.00,,---,0.02,VWS V14.01,2015-07-06 11:20:00,
2015-07-06 06:26:00,63.2,63.2,28.22,NNW,347,1.0,11.0,100,0.00,,---,0.02,VWS V14.01,2015-07-06 11:26:00,
2015-07-06 06:32:00,63.1,63.1,28.22,NNW,340,7.0,11.0,100,0.00,,---,0.02,VWS V14.01,2015-07-06 11:32:00,
2015-07-06 06:38:00,63.1,63.1,28.22,North,355,0.0,11.0,100,0.00,,---,0.02,VWS V14.01,2015-07-06 11:38:00,
2015-07-06 06:44:00,63.1,63.1,28.23,NNW,341,3.0,12.0,100,0.00,,---,0.02,VWS V14.01,2015-07-06 11:44:00,
2015-07-06 06:50:00,62.9,62.9,28.23,North,356,5.0,12.0,100,0.00,,---,0.02,VWS V14.01,2015-07-06 11:50:00,
2015-07-06 06:56:00,62.6,62.6,28.23,North,359,2.0,12.0,100,0.00,,---,0.02,VWS V14.01,2015-07-06 11:56:00,
2015-07-06 07:02:00,62.5,62.5,28.24,North,357,2.0,7.0,100,0.00,,---,0.02,VWS V14.01,2015-07-06 12:02:00,
2015-07-06 07:08:00,62.8,62.8,28.23,North,0,3.0,7.0,100,0.00,,---,0.02,VWS V14.01,2015-07-06 12:08:00,
2015-07-06 07:14:00,62.6,62.6,28.24,North,352,4.0,7.0,100,0.00,,---,0.02,VWS V14.01,2015-07-06 12:14:00,
2015-07-06 07:20:00,62.6,62.6,28.24,North,354,3.0,9.0,100,0.00,,---,0.02,VWS V14.01,2015-07-06 12:20:00,
2015-07-06 07:27:00,62.8,62.8,28.24,North,358,5.0,9.0,100,0.00,,---,0.02,VWS V14.01,2015-07-06 12:27:00,
2015-07-06 07:33:00,62.8,62.8,28.24,North,359,1.0,6.0,100,0.00,,---,0.02,VWS V14.01,2015-07-06 12:33:00,
2015-07-06 07:39:00,62.8,62.8,28.24,North,359,1.0,8.0,100,0.00,,---,0.02,VWS V14.01,2015-07-06 12:39:00,
2015-07-06 07:45:00,62.8,62.8,28.25,North,357,5.0,8.0,100,0.00,,---,0.02,VWS V14.01,2015-07-06 12:45:00,
2015-07-06 07:51:00,62.9,62.9,28.25,NW,323,3.0,8.0,100,0.00,,---,0.02,VWS V14.01,2015-07-06 12:51:00,
2015-07-06 07:57:00,63.1,63.1,28.25,North,349,1.0,10.0,100,0.00,,---,0.02,VWS V14.01,2015-07-06 12:57:00,
2015-07-06 08:03:00,63.3,63.3,28.25,NNE,20,3.0,10.0,100,0.00,,---,0.02,VWS V14.01,2015-07-06 13:03:00,
2015-07-06 08:09:00,63.6,63.6,28.25,North,358,5.0,10.0,100,0.00,,---,0.02,VWS V14.01,2015-07-06 13:09:00,
2015-07-06 08:15:00,64.5,64.5,28.26,North,357,2.0,10.0,100,0.00,,---,0.02,VWS V14.01,2015-07-06 13:15:00,
2015-07-06 08:21:00,64.9,64.9,28.26,North,357,5.0,10.0,100,0.00,,---,0.02,VWS V14.01,2015-07-06 13:21:00,
2015-07-06 08:27:00,65.2,65.2,28.25,North,358,7.0,12.0,100,0.00,,---,0.02,VWS V14.01,2015-07-06 13:27:00,
2015-07-06 08:33:00,64.9,64.9,28.26,NNW,338,13.0,13.0,100,0.00,,---,0.02,VWS V14.01,2015-07-06 13:33:00,
2015-07-06 08:39:00,64.8,64.8,28.26,NNW,344,4.0,13.0,100,0.00,,---,0.02,VWS V14.01,2015-07-06 13:39:00,
2015-07-06 08:45:00,65.3,65.3,28.26,North,356,10.0,13.0,100,0.00,,---,0.02,VWS V14.01,2015-07-06 13:45:00,
2015-07-06 08:51:00,65.5,65.5,28.27,North,5,5.0,14.0,100,0.00,,---,0.02,VWS V14.01,2015-07-06 13:51:00,
2015-07-06 08:57:00,65.7,65.7,28.27,North,358,6.0,14.0,100,0.00,,---,0.02,VWS V14.01,2015-07-06 13:57:00,
2015-07-06 09:03:00,65.7,65.7,28.27,North,355,1.0,8.0,100,0.00,,---,0.02,VWS V14.01,2015-07-06 14:03:00,
2015-07-06 09:09:00,65.7,65.7,28.28,North,353,6.0,8.0,100,0.00,,---,0.02,VWS V14.01,2015-07-06 14:09:00,
2015-07-06 09:15:00,65.7,65.7,28.28,North,355,5.0,8.0,100,0.00,,---,0.02,VWS V14.01,2015-07-06 14:15:00,
2015-07-06 09:21:00,65.9,65.9,28.28,North,358,2.0,8.0,100,0.00,,---,0.02,VWS V14.01,2015-07-06 14:21:00,
2015-07-06 09:27:00,66.1,66.1,28.28,North,355,2.0,9.0,100,0.00,,---,0.02,VWS V14.01,2015-07-06 14:27:00,
2015-07-06 09:33:00,66.0,65.4,28.29,North,354,6.0,12.0,98,0.00,,---,0.02,VWS V14.01,2015-07-06 14:33:00,
2015-07-06 09:39:00,65.9,65.3,28.29,North,0,8.0,12.0,98,0.00,,---,0.02,VWS V14.01,2015-07-06 14:39:00,
2015-07-06 09:45:00,66.1,65.8,28.29,North,356,5.0,12.0,99,0.00,,---,0.02,VWS V14.01,2015-07-06 14:45:00,
2015-07-06 09:51:00,66.4,65.5,28.29,NNW,348,3.0,12.0,97,0.00,,---,0.02,VWS V14.01,2015-07-06 14:51:00,
2015-07-06 09:57:00,66.5,65.6,28.30,NNW,341,4.0,12.0,97,0.00,,---,0.02,VWS V14.01,2015-07-06 14:57:00,
2015-07-06 10:03:00,66.7,65.5,28.30,North,356,4.0,9.0,96,0.00,,---,0.02,VWS V14.01,2015-07-06 15:03:00,
2015-07-06 10:09:00,66.8,65.6,28.30,NNW,347,6.0,12.0,96,0.00,,---,0.02,VWS V14.01,2015-07-06 15:09:00,
2015-07-06 10:15:00,67.5,66.6,28.30,North,349,7.0,14.0,97,0.00,,---,0.02,VWS V14.01,2015-07-06 15:15:00,
2015-07-06 10:21:00,67.8,66.0,28.30,North,358,6.0,14.0,94,0.00,,---,0.02,VWS V14.01,2015-07-06 15:21:00,
2015-07-06 10:27:00,68.7,67.5,28.30,North,356,4.0,14.0,96,0.00,,---,0.02,VWS V14.01,2015-07-06 15:27:00,
2015-07-06 10:33:00,69.6,68.4,28.30,North,356,7.0,9.0,96,0.00,,---,0.02,VWS V14.01,2015-07-06 15:33:00,
2015-07-06 10:39:00,70.1,67.7,28.30,North,359,2.0,12.0,92,0.00,,---,0.02,VWS V14.01,2015-07-06 15:39:00,
2015-07-06 10:45:00,70.3,67.6,28.30,NNW,347,2.0,12.0,91,0.00,,---,0.02,VWS V14.01,2015-07-06 15:45:00,
2015-07-06 10:51:00,70.1,66.7,28.30,North,359,5.0,12.0,89,0.00,,---,0.02,VWS V14.01,2015-07-06 15:51:00,
2015-07-06 10:57:00,70.5,66.4,28.30,WNW,289,1.0,15.0,87,0.00,,---,0.02,VWS V14.01,2015-07-06 15:57:00,
2015-07-06 11:03:00,71.0,66.3,28.30,North,356,1.0,14.0,85,0.00,,---,0.02,VWS V14.01,2015-07-06 16:03:00,
2015-07-06 11:09:00,71.2,66.8,28.30,NW,311,10.0,14.0,86,0.00,,---,0.02,VWS V14.01,2015-07-06 16:09:00,
2015-07-06 11:15:00,71.5,67.8,28.30,North,354,8.0,15.0,88,0.00,,---,0.02,VWS V14.01,2015-07-06 16:15:00,
2015-07-06 11:21:00,72.3,66.8,28.30,North,353,9.0,15.0,83,0.00,,---,0.02,VWS V14.01,2015-07-06 16:21:00,
2015-07-06 11:27:00,72.6,66.1,28.30,North,349,1.0,15.0,80,0.00,,---,0.02,VWS V14.01,2015-07-06 16:27:00,
2015-07-06 11:33:00,72.3,65.1,28.31,North,4,11.0,16.0,78,0.00,,---,0.02,VWS V14.01,2015-07-06 16:33:00,
2015-07-06 11:39:00,72.6,65.3,28.31,North,357,9.0,18.0,78,0.00,,---,0.02,VWS V14.01,2015-07-06 16:39:00,
2015-07-06 11:45:00,72.9,64.1,28.31,NE,35,11.0,18.0,74,0.00,,---,0.02,VWS V14.01,2015-07-06 16:45:00,
2015-07-06 11:57:00,73.2,64.4,28.31,North,358,3.0,18.0,74,0.00,,---,0.02,VWS V14.01,2015-07-06 16:57:00,
2015-07-06 12:03:00,73.6,63.6,28.32,North,1,13.0,17.0,71,0.00,,---,0.02,VWS V14.01,2015-07-06 17:03:00,
2015-07-06 12:09:00,73.7,63.7,28.32,North,357,12.0,17.0,71,0.00,,---,0.02,VWS V14.01,2015-07-06 17:09:00,
2015-07-06 12:16:00,73.9,64.7,28.31,North,356,4.0,17.0,73,0.00,,---,0.02,VWS V14.01,2015-07-06 17:16:00,
2015-07-06 12:22:00,73.6,63.6,28.32,North,355,10.0,17.0,71,0.00,,---,0.02,VWS V14.01,2015-07-06 17:22:00,
2015-07-06 12:28:00,74.3,63.1,28.31,North,1,14.0,18.0,68,0.00,,---,0.02,VWS V14.01,2015-07-06 17:28:00,
2015-07-06 12:34:00,74.9,62.3,28.31,North,0,9.0,18.0,65,0.00,,---,0.02,VWS V14.01,2015-07-06 17:34:00,
2015-07-06 12:40:00,75.4,62.4,28.31,North,4,17.0,20.0,64,0.00,,---,0.02,VWS V14.01,2015-07-06 17:40:00,
2015-07-06 12:46:00,75.3,60.9,28.32,North,3,11.0,20.0,61,0.00,,---,0.02,VWS V14.01,2015-07-06 17:46:00,
2015-07-06 12:50:00,75.3,60.9,28.32,NNE,16,11.0,20.0,61,0.00,,---,0.02,VWS V14.01,2015-07-06 17:50:00,
2015-07-06 12:56:00,75.4,62.4,28.32,North,5,18.0,20.0,64,0.00,,---,0.02,VWS V14.01,2015-07-06 17:56:00,
2015-07-06 13:02:00,75.6,61.7,28.32,North,359,11.0,17.0,62,0.00,,---,0.02,VWS V14.01,2015-07-06 18:02:00,
2015-07-06 13:08:00,75.1,60.8,28.32,NNW,346,9.0,17.0,61,0.00,,---,0.02,VWS V14.01,2015-07-06 18:08:00,
2015-07-06 13:14:00,75.3,61.4,28.32,North,355,4.0,17.0,62,0.00,,---,0.02,VWS V14.01,2015-07-06 18:14:00,
2015-07-06 13:20:00,75.8,61.9,28.32,North,349,1.0,17.0,62,0.00,,---,0.02,VWS V14.01,2015-07-06 18:20:00,
2015-07-06 13:26:00,76.7,64.9,28.32,North,359,8.0,17.0,67,0.00,,---,0.02,VWS V14.01,2015-07-06 18:26:00,
2015-07-06 13:32:00,76.8,63.3,28.32,North,358,5.0,10.0,63,0.00,,---,0.02,VWS V14.01,2015-07-06 18:32:00,
2015-07-06 13:38:00,76.6,63.1,28.32,North,350,7.0,14.0,63,0.00,,---,0.02,VWS V14.01,2015-07-06 18:38:00,
2015-07-06 13:44:00,75.9,62.9,28.32,North,358,1.0,18.0,64,0.00,,---,0.02,VWS V14.01,2015-07-06 18:44:00,
2015-07-06 13:50:00,76.9,63.8,28.32,North,359,3.0,18.0,64,0.00,,---,0.02,VWS V14.01,2015-07-06 18:50:00,
2015-07-06 13:56:00,76.0,62.5,28.32,NE,34,8.0,18.0,63,0.00,,---,0.02,VWS V14.01,2015-07-06 18:56:00,
2015-07-06 14:02:00,75.7,61.3,28.32,NNE,16,6.0,12.0,61,0.00,,---,0.02,VWS V14.01,2015-07-06 19:02:00,
2015-07-06 14:08:00,77.0,63.9,28.32,North,357,3.0,12.0,64,0.00,,---,0.02,VWS V14.01,2015-07-06 19:08:00,
2015-07-06 14:14:00,76.4,63.3,28.32,North,356,5.0,16.0,64,0.00,,---,0.02,VWS V14.01,2015-07-06 19:14:00,
2015-07-06 14:20:00,76.7,63.6,28.32,North,358,8.0,17.0,64,0.00,,---,0.02,VWS V14.01,2015-07-06 19:20:00,
2015-07-06 14:26:00,76.9,62.4,28.32,North,358,4.0,17.0,61,0.00,,---,0.02,VWS V14.01,2015-07-06 19:26:00,
2015-07-06 14:32:00,75.5,62.0,28.31,NNW,344,10.0,12.0,63,0.00,,---,0.02,VWS V14.01,2015-07-06 19:32:00,
2015-07-06 14:38:00,74.9,60.1,28.32,NNW,348,9.0,14.0,60,0.00,,---,0.02,VWS V14.01,2015-07-06 19:38:00,
2015-07-06 14:44:00,73.6,61.5,28.32,NNW,346,2.0,14.0,66,0.00,,---,0.02,VWS V14.01,2015-07-06 19:44:00,
2015-07-06 14:50:00,75.4,63.7,28.32,North,356,1.0,14.0,67,0.00,,---,0.02,VWS V14.01,2015-07-06 19:50:00,
2015-07-06 14:56:00,76.9,63.4,28.32,North,9,6.0,14.0,63,0.00,,---,0.02,VWS V14.01,2015-07-06 19:56:00,
2015-07-06 15:02:00,76.2,62.7,28.32,North,356,3.0,11.0,63,0.00,,---,0.02,VWS V14.01,2015-07-06 20:02:00,
2015-07-06 15:08:00,74.9,61.5,28.32,North,0,6.0,16.0,63,0.00,,---,0.02,VWS V14.01,2015-07-06 20:08:00,
2015-07-06 15:14:00,76.8,63.3,28.32,North,0,9.0,16.0,63,0.00,,---,0.02,VWS V14.01,2015-07-06 20:14:00,
2015-07-06 15:20:00,77.1,62.2,28.32,North,359,6.0,17.0,60,0.00,,---,0.02,VWS V14.01,2015-07-06 20:20:00,
2015-07-06 15:26:00,77.7,63.2,28.32,North,356,12.0,17.0,61,0.00,,---,0.02,VWS V14.01,2015-07-06 20:26:00,
2015-07-06 15:32:00,77.6,63.1,28.32,North,0,4.0,9.0,61,0.00,,---,0.02,VWS V14.01,2015-07-06 20:32:00,
2015-07-06 15:38:00,75.7,61.8,28.32,North,359,11.0,17.0,62,0.00,,---,0.02,VWS V14.01,2015-07-06 20:38:00,
2015-07-06 15:44:00,76.6,63.1,28.32,North,3,10.0,17.0,63,0.00,,---,0.02,VWS V14.01,2015-07-06 20:44:00,
2015-07-06 15:50:00,78.4,63.8,28.32,North,5,14.0,17.0,61,0.00,,---,0.02,VWS V14.01,2015-07-06 20:50:00,
2015-07-06 15:56:00,78.9,62.9,28.32,North,359,6.0,18.0,58,0.00,,---,0.02,VWS V14.01,2015-07-06 20:56:00,
2015-07-06 16:02:00,79.4,63.8,28.32,North,358,3.0,14.0,59,0.00,,---,0.02,VWS V14.01,2015-07-06 21:02:00,
2015-07-06 16:08:00,79.3,62.8,28.32,North,5,7.0,15.0,57,0.00,,---,0.02,VWS V14.01,2015-07-06 21:08:00,
2015-07-06 16:14:00,79.4,63.3,28.32,North,358,5.0,16.0,58,0.00,,---,0.02,VWS V14.01,2015-07-06 21:14:00,
2015-07-06 16:20:00,77.9,62.0,28.32,North,359,1.0,16.0,58,0.00,,---,0.02,VWS V14.01,2015-07-06 21:20:00,
2015-07-06 16:26:00,77.1,62.6,28.32,NW,323,1.0,16.0,61,0.00,,---,0.02,VWS V14.01,2015-07-06 21:26:00,
2015-07-06 16:32:00,77.4,62.9,28.32,North,354,3.0,13.0,61,0.00,,---,0.02,VWS V14.01,2015-07-06 21:32:00,
2015-07-06 16:38:00,78.5,63.0,28.32,North,0,9.0,17.0,59,0.00,,---,0.02,VWS V14.01,2015-07-06 21:38:00,
2015-07-06 16:44:00,78.1,63.1,28.32,North,1,7.0,17.0,60,0.00,,---,0.02,VWS V14.01,2015-07-06 21:44:00,
2015-07-06 16:50:00,79.1,63.1,28.32,NNW,332,1.0,17.0,58,0.00,,---,0.02,VWS V14.01,2015-07-06 21:50:00,
2015-07-06 17:03:00,78.9,62.4,28.32,NNW,343,2.0,12.0,57,0.00,,---,0.02,VWS V14.01,2015-07-06 22:03:00,
2015-07-06 17:09:00,79.2,64.1,28.32,North,0,8.0,16.0,60,0.00,,---,0.02,VWS V14.01,2015-07-06 22:09:00,
2015-07-06 17:15:00,80.1,64.0,28.32,North,0,5.0,16.0,58,0.00,,---,0.02,VWS V14.01,2015-07-06 22:15:00,
2015-07-06 17:21:00,80.7,64.1,28.32,North,351,1.0,16.0,57,0.00,,---,0.02,VWS V14.01,2015-07-06 22:21:00,
2015-07-06 17:27:00,79.8,62.7,28.32,NW,304,2.0,16.0,56,0.00,,---,0.02,VWS V14.01,2015-07-06 22:27:00,
2015-07-06 17:39:00,78.1,62.1,28.32,NNW,330,1.0,14.0,58,0.00,,---,0.02,VWS V14.01,2015-07-06 22:39:00,
2015-07-06 17:45:00,78.1,63.6,28.31,North,351,12.0,14.0,61,0.00,,---,0.02,VWS V14.01,2015-07-06 22:45:00,
2015-07-06 17:51:00,78.5,63.0,28.31,North,359,6.0,14.0,59,0.00,,---,0.02,VWS V14.01,2015-07-06 22:51:00,
2015-07-06 17:57:00,79.7,64.6,28.31,North,0,7.0,14.0,60,0.00,,---,0.02,VWS V14.01,2015-07-06 22:57:00,
2015-07-06 18:03:00,80.0,63.4,28.31,North,359,7.0,8.0,57,0.00,,---,0.02,VWS V14.01,2015-07-06 23:03:00,
2015-07-06 18:09:00,79.3,63.3,28.31,North,2,7.0,12.0,58,0.00,,---,0.02,VWS V14.01,2015-07-06 23:09:00,
2015-07-06 18:15:00,79.1,63.1,28.31,North,0,10.0,12.0,58,0.00,,---,0.02,VWS V14.01,2015-07-06 23:15:00,
2015-07-06 18:21:00,78.9,63.4,28.31,North,351,1.0,12.0,59,0.00,,---,0.02,VWS V14.01,2015-07-06 23:21:00,
2015-07-06 18:27:00,78.5,63.0,28.31,North,5,5.0,12.0,59,0.00,,---,0.02,VWS V14.01,2015-07-06 23:27:00,
2015-07-06 18:33:00,77.4,62.0,28.30,North,353,1.0,9.0,59,0.00,,---,0.02,VWS V14.01,2015-07-06 23:33:00,
2015-07-06 18:39:00,77.7,63.2,28.30,North,358,11.0,11.0,61,0.00,,---,0.02,VWS V14.01,2015-07-06 23:39:00,
2015-07-06 18:45:00,78.6,63.6,28.30,North,0,5.0,11.0,60,0.00,,---,0.02,VWS V14.01,2015-07-06 23:45:00,
2015-07-06 18:51:00,79.2,62.2,28.30,North,1,8.0,13.0,56,0.00,,---,0.02,VWS V14.01,2015-07-06 23:51:00,
2015-07-06 18:57:00,77.9,62.4,28.29,North,356,0.0,13.0,59,0.00,,---,0.02,VWS V14.01,2015-07-06 23:57:00,
2015-07-06 19:03:00,76.9,62.9,28.29,North,356,4.0,10.0,62,0.00,,---,0.02,VWS V14.01,2015-07-07 00:03:00,
2015-07-06 19:09:00,77.7,62.7,28.29,North,359,3.0,10.0,60,0.00,,---,0.02,VWS V14.01,2015-07-07 00:09:00,
2015-07-06 19:15:00,77.9,62.4,28.29,NE,42,6.0,10.0,59,0.00,,---,0.02,VWS V14.01,2015-07-07 00:15:00,
2015-07-06 19:21:00,77.8,61.9,28.29,North,356,5.0,12.0,58,0.00,,---,0.02,VWS V14.01,2015-07-07 00:21:00,